Location: Slemon Park
(46.4340°N, 63.8219°W)
Time: 03:22:23
(UTC-03:00)

Daily predictions for brighter satellites

Satellite Brightness Start Highest point End
(mag) Time Altitude Azimuth Time Altitude Azimuth Time Altitude Azimuth
SL-16 R/B 4.4 00:01:30 10° NNW 00:03:20 21° NNW 00:03:20 21° NNW
SL-16 R/B 4.3 02:02:35 25° NE 02:02:35 25° NE 02:06:45 10° N
SL-16 R/B 4.4 02:08:28 10° N 02:10:37 20° N 02:10:37 20° N
Cosmos 2227 Rocket 4.1 02:39:31 25° NE 02:39:31 25° NE 02:41:56 10° NE
ADEOS Rocket 4.0 02:51:23 10° NNE 02:55:31 46° NNE 02:55:31 46° NNE
Resurs 1-4 Rocket 3.9 02:55:15 10° NNE 02:58:11 27° NE 02:58:11 27° NE
CZ-4C R/B 3.5 03:12:43 38° NE 03:12:43 38° NE 03:16:31 10° NE
Cosmos 2297 Rocket 3.3 03:21:48 40° NNE 03:21:48 40° NNE 03:25:22 10° NNE
CZ-2D R/B 3.3 03:23:26 10° NNE 03:26:49 39° NE 03:26:49 39° NE
SL-16 R/B 3.5 03:47:41 35° NNW 03:47:41 35° NNW 03:51:10 10° NNW
USA 215 4.4 03:39:09 10° ENE 03:45:04 38° N 03:49:05 19° NW
Cosmos 1634 Rocket 4.0 03:51:20 79° ENE 03:51:20 79° ENE 03:57:31 10° N
Cosmos 1603 4.2 03:48:22 10° NNW 03:53:57 58° ENE 03:59:32 10° SE
Lacrosse 5 rocket 3.6 03:57:14 20° NNE 03:57:14 20° NNE 03:58:45 10° NE
IRS-1D 4.1 04:05:21 10° N 04:09:32 50° NNW 04:09:32 50° NNW
Cosmos 44 4.3 04:16:54 34° N 04:16:54 34° N 04:19:42 10° NNE
Cosmos 1655 Rocket 3.9 04:09:42 10° N 04:16:05 85° E 04:18:08 46° SSE
ARIANE 5 R/B 3.0 04:11:18 10° N 04:15:19 50° NNW 04:15:19 50° NNW
Cosmos 44 Rocket 4.1 04:19:05 40° N 04:19:05 40° N 04:22:36 10° NNE
Cosmos 676 Rocket 4.4 04:18:07 54° SE 04:18:46 59° ESE 04:24:01 10° NNE
Cosmos 1943 4.0 04:13:28 10° NNW 04:19:01 50° ENE 04:24:32 10° SE
Cosmos 2227 Rocket 3.4 04:21:21 29° NW 04:21:21 29° NW 04:25:45 10° N
Cosmos 1428 Rocket 4.3 04:15:25 10° N 04:21:35 90° NE 04:23:38 46° S
Okean O Rocket 4.2 04:19:04 10° NE 04:22:00 17° E 04:24:55 10° SE
ADEOS II 3.2 04:22:07 10° NNE 04:27:05 40° E 04:30:31 19° SSE
Cosmos 2263 Rocket 3.7 04:29:39 15° SSE 04:33:36 32° ESE 04:38:37 10° NE
UNKNOWN OBJECT B 4.0 04:33:05 10° N 04:35:25 33° N 04:35:25 33° N
Okean 1 Rocket 3.0 04:33:35 10° N 04:37:58 85° NNE 04:37:58 85° NNE
DELTA 2 R/B (1) 4.2 04:38:42 39° S 04:38:47 39° S 04:43:55 10° ESE
Resurs 1-4 Rocket 3.0 04:35:11 10° N 04:39:16 33° NW 04:39:16 33° NW
Cosmos 405 Rocket 3.2 04:40:57 56° N 04:40:57 56° N 04:44:11 10° N
Cosmos 2026 Rocket 4.2 04:35:43 10° NNW 04:41:08 46° WNW 04:41:08 46° WNW
CZ-2D R/B 4.0 04:39:14 10° N 04:42:26 47° NNW 04:42:26 47° NNW
Cosmos 1437 Rocket 4.1 04:41:04 10° N 04:44:46 39° ENE 04:48:30 10° SE
Cosmos 1674 Rocket 3.9 04:53:23 48° NW 04:53:23 48° NW 04:57:10 10° N
ATLAS 5 CENTAUR R/B 4.4 04:53:54 10° NNW 04:58:23 23° NNE 05:03:13 10° E
Cosmos 2279 Rocket 4.0 04:56:36 41° SW 04:58:27 56° WNW 05:04:33 10° N
Cosmos 407 Rocket 3.9 04:58:15 44° W 04:58:55 46° WNW 05:04:05 10° NNE
CZ-4C R/B 3.3 04:57:54 27° WNW 04:59:34 32° NNW 05:05:12 10° NNE
CZ-4B R/B 4.4 04:59:09 10° NNE 05:04:08 40° E 05:09:06 10° SSE
Cosmos 2297 Rocket 3.8 05:03:37 19° NW 05:04:31 19° NW 05:08:34 10° N
Cosmos 1812 2.6 05:05:46 65° SW 05:06:13 74° W 05:10:06 10° N
CZ-2D R/B 3.5 05:04:25 10° NNW 05:08:08 21° WNW 05:08:08 21° WNW
Cosmos 332 Rocket 4.5 05:06:18 10° NNW 05:11:04 55° ENE 05:15:45 10° SE
Tiangong 1 2.6 05:12:25 23° SE 05:12:25 23° SE 05:13:47 10° ESE
Meteor 1-27 Rocket 4.5 05:11:03 30° WNW 05:11:28 30° WNW 05:16:19 10° N
Cosmos 1023 Rocket 4.4 05:10:48 35° SW 05:12:59 68° WNW 05:18:15 10° NNE
PSLV R/B 3.7 05:10:23 10° NNE 05:14:35 71° E 05:18:03 15° S
Cosmos 1544 Rocket 4.2 05:12:28 10° N 05:16:45 56° ENE 05:21:01 10° SSE
Cosmos 371 Rocket 4.1 05:12:00 10° NNW 05:16:48 53° ENE 05:21:33 10° SE
Okean 3 3.9 05:16:53 41° W 05:17:17 42° WNW 05:21:24 10° N
Cosmos 1975 Rocket 3.0 05:17:10 18° S 05:20:25 86° W 05:24:52 10° N
Meteor 1-4 Rocket 4.4 05:17:49 10° N 05:21:00 32° ENE 05:24:10 10° SE
ASTEX 1 3.4 05:17:11 10° N 05:22:01 58° W 05:25:16 20° SSW
Cosmos 1500 3.1 05:19:02 10° NNW 05:22:45 60° W 05:25:48 14° S
Abrixas rocket 2.8 05:22:34 38° S 05:23:13 45° SSE 05:26:21 10° E
Cosmos 1741 Rocket 4.1 05:19:21 15° SSW 05:23:43 80° ESE 05:29:00 10° NNE
Cosmos 1455 Rocket 3.5 05:20:29 10° N 05:24:48 61° ENE 05:29:04 10° SSE
Cosmos 1975 2.8 05:21:38 10° N 05:25:45 86° W 05:29:51 10° S
Cosmos 1441 Rocket 3.8 05:26:20 35° WNW 05:26:26 35° WNW 05:29:57 10° N
USA 215 3.6 05:21:01 10° ESE 05:27:27 66° NNE 05:33:56 10° NW
Lacrosse 5 rocket 3.4 05:32:56 11° NW 05:35:20 17° N 05:37:51 10° NE
Meteor 1-18 Rocket 4.3 05:32:07 10° SSW 05:38:00 69° WNW 05:43:58 10° N
Cosmos 468 Rocket 4.2 05:33:03 10° NNW 05:38:25 76° ENE 05:43:43 10° SSE
PSLV R/B 3.9 05:35:05 10° N 05:38:53 52° WNW 05:41:11 21° SW
CZ-4B DEB 4.2 05:33:30 10° NNE 05:39:00 86° ESE 05:44:29 10° SSW
Okean 1 3.2 05:36:04 15° SSW 05:39:18 63° W 05:43:18 10° N
Cosmos 1140 Rocket 3.9 05:36:44 24° WSW 05:39:28 42° WNW 05:44:29 10° N
CZ-2C R/B 4.0 05:36:38 10° SSE 05:41:18 77° ENE 05:46:05 10° N
CZ-4B R/B 3.0 05:38:41 10° N 05:42:48 55° WNW 05:46:00 15° SSW
Intercosmos 25 Rocket 3.2 05:39:01 10° S 05:43:25 85° E 05:46:43 10° N
GEOS 3 Rocket 3.8 05:39:10 10° SE 05:44:22 75° NE 05:49:41 10° NW
Cosmos 1536 Rocket 4.3 05:41:30 10° S 05:45:43 56° E 05:50:01 10° NNE
Cosmos 1850 Rocket 4.0 05:41:03 13° SSW 05:45:51 66° WNW 05:51:11 10° NNE
EO 1 Del DPAF 4.1 05:44:28 10° SSE 05:48:12 54° ENE 05:51:57 10° N
Meteor 1-31 Rocket 3.2 05:44:41 10° NNE 05:48:35 64° E 05:52:25 10° S
Atlas Centaur 2 4.1 05:46:43 10° SSW 05:49:07 13° S 05:51:19 10° SSE
Nadezhda 2 Rocket 4.5 05:44:36 10° NNW 05:50:57 67° W 05:57:10 10° S
Okean O Rocket 1.8 05:54:28 10° N 05:58:40 50° WNW 06:02:52 10° SW
CZ-4B R/B 3.9 05:55:49 10° NNE 05:59:40 82° ESE 06:03:40 10° S
Cosmos 1763 Rocket 3.9 05:55:41 10° NNW 06:00:58 69° ENE 06:06:16 10° SSE
PAYLOAD B 4.3 05:56:37 10° N 06:02:05 60° WNW 06:07:28 10° SSW
Cosmos 1943 4.0 05:58:00 10° NW 06:02:48 29° WSW 06:07:34 10° SSW
Landsat 4 3.9 05:59:12 10° S 06:02:55 49° W 06:06:39 10° NNW
Cosmos 1666 2.6 06:00:44 10° NNW 06:04:28 67° W 06:08:13 10° S
IRS-1C Rocket 4.1 06:00:22 10° N 06:05:38 68° WNW 06:10:52 10° SSW
ADEOS II 2.9 06:02:07 10° N 06:06:41 31° WNW 06:11:13 10° SW
Cosmos 1743 3.0 06:05:35 10° NNW 06:09:22 46° W 06:13:06 10° SSW
Cosmos 1844 Rocket 4.1 06:04:31 10° S 06:09:48 42° ESE 06:15:07 10° NE
Molniya-1 2.6 06:09:43 21° WSW 06:10:39 44° NW 06:12:15 10° NNE
SL-8 R/B 3.9 06:09:30 12° WSW 06:14:01 72° SSE 06:18:49 10° ENE
Cosmos 2263 Rocket 2.6 06:11:57 10° SW 06:17:22 44° NW 06:22:50 10° NNE
Meteor 1-13 Rocket 4.3 06:11:41 10° SSW 06:17:38 77° WNW 06:23:36 10° N
Cosmos 1437 Rocket 4.3 06:18:10 10° NW 06:20:44 17° W 06:23:20 10° SW
MTI 4.0 06:17:52 10° S 06:21:01 47° W 06:24:12 10° NNW
Lacrosse 4 Rocket 4.2 06:20:10 10° N 06:23:20 19° NE 06:26:25 10° E
USA 116 3.6 06:20:40 10° S 06:23:46 40° W 06:26:45 10° NNW
Meteor 2-11 Rocket 4.4 06:17:53 10° SSW 06:23:55 65° WNW 06:29:59 10° N
Cosmos 1025 Rocket 4.2 06:20:20 10° SSE 06:24:25 48° E 06:28:33 10° NNE
DELTA 2 R/B (1) 4.4 06:19:30 10° WSW 06:24:39 39° S 06:29:46 10° ESE
Cosmos 389 Rocket 3.8 06:23:21 10° N 06:26:43 45° ENE 06:30:03 10° SSE
Cosmos 1900 4.5 06:22:09 10° NW 06:27:21 90° S 06:32:27 10° SSE
COSMO-SKYMED 1 2.5 06:27:54 10° S 06:32:15 80° WSW 06:36:37 10° NNW
Meteor 1-28 Rocket 3.5 06:31:25 10° S 06:35:00 45° W 06:38:38 10° NNW
